| time (UTC) | temp F | wind direction | speed MPH | gust MPH | rain 1hr in | rain 24hr in | rain mn in | humidity % | barometer mb |
| 20260510074238 | 50 | 59 | 3.0 | 7.0 | 0.00 | 0.00 | 0.00 | 56 | 1011.7 |
| 20260510073711 | 49 | 62 | 4.0 | 8.0 | 0.00 | 0.00 | 0.00 | 56 | 1011.9 |
| 20260510072238 | 49 | 56 | 2.0 | 7.0 | 0.00 | 0.00 | 0.00 | 58 | 1012.0 |
| 20260510072202 | 49 | 75 | 3.0 | 7.0 | 0.00 | 0.00 | 0.00 | 59 | 1012.3 |
| 20260510070238 | 48 | 106 | 5.0 | 8.0 | 0.00 | 0.00 | 0.00 | 61 | 1012.3 |
| 20260510065238 | 47 | 121 | 3.0 | 7.0 | 0.00 | 0.00 | 0.00 | 59 | 1012.4 |
| 20260510064232 | 47 | 88 | 4.0 | 9.0 | 0.00 | 0.00 | 0.00 | 65 | 1012.6 |
| 20260510063231 | 46 | 89 | 6.0 | 10.0 | 0.00 | 0.00 | 0.00 | 64 | 1012.7 |
| 20260510062233 | 45 | 67 | 5.0 | 9.0 | 0.00 | 0.00 | 0.00 | 64 | 1012.8 |
| 20260510061231 | 45 | 120 | 4.0 | 10.0 | 0.00 | 0.00 | 0.00 | 65 | 1012.9 |
| 20260510060231 | 44 | 117 | 5.0 | 9.0 | 0.00 | 0.00 | 0.00 | 65 | 1013.0 |
| 20260510055231 | 44 | 77 | 5.0 | 8.0 | 0.00 | 0.00 | 0.00 | 66 | 1013.1 |
| 20260510055154 | 43 | 100 | 4.0 | 8.0 | 0.00 | 0.00 | 0.00 | 69 | 1013.3 |
| 20260510053710 | 43 | 86 | 3.0 | 5.0 | 0.00 | 0.00 | 0.00 | 70 | 1013.4 |
| 20260510052232 | 42 | 100 | 2.0 | 4.0 | 0.00 | 0.00 | 0.00 | 71 | 1013.5 |
| 20260510051230 | 42 | 62 | 1.0 | 3.0 | 0.00 | 0.00 | 0.00 | 72 | 1013.7 |
| 20260510050230 | 41 | 95 | 0.0 | 2.0 | 0.00 | 0.00 | 0.00 | 72 | 1013.8 |
| 20260510045230 | 40 | 333 | 0.0 | 0.0 | 0.00 | 0.00 | 0.00 | 75 | 1013.9 |
| 20260510044231 | 39 | 333 | 0.0 | 0.0 | 0.00 | 0.00 | 0.00 | 78 | 1013.8 |
| 20260510043230 | 38 | 333 | 0.0 | 0.0 | 0.00 | 0.00 | 0.00 | 79 | 1014.0 |
| 20260510042708 | 37 | 333 | 0.0 | 0.0 | 0.00 | 0.00 | 0.00 | 81 | 1014.0 |
| 20260510041711 | 36 | 333 | 0.0 | 0.0 | 0.00 | 0.00 | 0.00 | 81 | 1014.1 |
| 20260510040231 | 36 | 333 | 0.0 | 0.0 | 0.00 | 0.00 | 0.00 | 81 | 1014.2 |
| 20260510035717 | 36 | 333 | 0.0 | 0.0 | 0.00 | 0.00 | 0.00 | 80 | 1014.3 |
| 20260510034233 | 36 | 324 | 0.0 | 2.0 | 0.00 | 0.00 | 0.00 | 80 | 1014.5 |
| 20260510033711 | 36 | 324 | 2.0 | 2.0 | 0.00 | 0.00 | 0.00 | 79 | 1014.7 |
| 20260510032230 | 36 | 324 | 1.0 | 3.0 | 0.00 | 0.00 | 0.00 | 78 | 1014.8 |
| 20260510031231 | 36 | 324 | 1.0 | 2.0 | 0.00 | 0.00 | 0.00 | 76 | 1014.8 |
| 20260510030231 | 36 | 324 | 0.0 | 2.0 | 0.00 | 0.00 | 0.00 | 76 | 1015.0 |
| 20260510025230 | 36 | 324 | 0.0 | 0.0 | 0.00 | 0.00 | 0.00 | 76 | 1015.0 |
| 20260510024231 | 36 | 324 | 1.0 | 2.0 | 0.00 | 0.00 | 0.00 | 76 | 1015.1 |
| 20260510023704 | 36 | 324 | 1.0 | 2.0 | 0.00 | 0.00 | 0.00 | 76 | 1015.2 |
| 20260510022231 | 36 | 324 | 1.0 | 2.0 | 0.00 | 0.00 | 0.00 | 76 | 1015.4 |
| 20260510021230 | 36 | 324 | 1.0 | 3.0 | 0.00 | 0.00 | 0.00 | 76 | 1015.7 |
| 20260510021142 | 37 | 328 | 2.0 | 4.0 | 0.00 | 0.00 | 0.00 | 76 | 1015.8 |
| 20260510015233 | 37 | 345 | 1.0 | 3.0 | 0.00 | 0.00 | 0.00 | 75 | 1015.7 |
| 20260510014230 | 37 | 354 | 1.0 | 2.0 | 0.00 | 0.00 | 0.00 | 74 | 1015.9 |
| 20260510013230 | 37 | 282 | 2.0 | 2.0 | 0.00 | 0.00 | 0.00 | 74 | 1016.1 |
| 20260510012231 | 37 | 282 | 0.0 | 1.0 | 0.00 | 0.00 | 0.00 | 73 | 1016.2 |
| 20260510011715 | 37 | 282 | 1.0 | 3.0 | 0.00 | 0.00 | 0.00 | 73 | 1016.2 |
| 20260510010231 | 37 | 282 | 2.0 | 4.0 | 0.00 | 0.00 | 0.00 | 73 | 1016.5 |
| 20260510005706 | 37 | 356 | 1.0 | 3.0 | 0.00 | 0.00 | 0.00 | 73 | 1016.5 |
| 20260510004231 | 37 | 310 | 0.0 | 0.0 | 0.00 | 0.00 | 0.00 | 72 | 1016.6 |
| 20260510004146 | 37 | 55 | 0.0 | 0.0 | 0.00 | 0.00 | 0.00 | 71 | 1016.6 |
| 20260510002231 | 38 | 55 | 0.0 | 0.0 | 0.00 | 0.00 | 0.00 | 70 | 1016.7 |
| 20260510001231 | 38 | 55 | 0.0 | 0.0 | 0.00 | 0.00 | 0.00 | 71 | 1016.7 |
| 20260510000233 | 38 | 89 | 0.0 | 1.0 | 0.00 | 0.00 | 0.00 | 71 | 1016.9 |
| 20260510000151 | 38 | 89 | 0.0 | 2.0 | 0.00 | 0.00 | 0.00 | 70 | 1016.8 |
| 20260509234230 | 39 | 89 | 1.0 | 2.0 | 0.00 | 0.00 | 0.00 | 69 | 1016.9 |
| 20260509233231 | 39 | 89 | 1.0 | 3.0 | 0.00 | 0.00 | 0.00 | 67 | 1017.0 |
| 20260509232231 | 40 | 349 | 0.0 | 0.0 | 0.00 | 0.00 | 0.00 | 66 | 1017.0 |
| 20260509231231 | 40 | 349 | 0.0 | 1.0 | 0.00 | 0.00 | 0.00 | 65 | 1017.0 |
| 20260509230231 | 40 | 349 | 0.0 | 1.0 | 0.00 | 0.00 | 0.00 | 64 | 1017.2 |
| 20260509225230 | 40 | 349 | 0.0 | 1.0 | 0.00 | 0.00 | 0.00 | 64 | 1017.3 |
| 20260509224231 | 41 | 349 | 1.0 | 2.0 | 0.00 | 0.00 | 0.00 | 64 | 1017.3 |
| 20260509223230 | 41 | 349 | 1.0 | 3.0 | 0.00 | 0.00 | 0.00 | 65 | 1017.4 |
| 20260509222231 | 41 | 24 | 1.0 | 3.0 | 0.00 | 0.00 | 0.00 | 64 | 1017.4 |
| 20260509221716 | 41 | 27 | 1.0 | 4.0 | 0.00 | 0.00 | 0.00 | 64 | 1017.7 |
| 20260509220231 | 42 | 77 | 2.0 | 3.0 | 0.00 | 0.00 | 0.00 | 60 | 1017.7 |
| 20260509215231 | 42 | 75 | 1.0 | 3.0 | 0.00 | 0.00 | 0.00 | 61 | 1017.7 |
| 20260509214231 | 43 | 54 | 2.0 | 4.0 | 0.00 | 0.00 | 0.00 | 59 | 1017.7 |
| 20260509213231 | 43 | 143 | 1.0 | 4.0 | 0.00 | 0.00 | 0.00 | 60 | 1017.7 |
| 20260509212231 | 44 | 193 | 2.0 | 7.0 | 0.00 | 0.00 | 0.00 | 59 | 1017.7 |
| 20260509211231 | 44 | 176 | 1.0 | 10.0 | 0.00 | 0.00 | 0.00 | 59 | 1017.8 |
| 20260509210231 | 46 | 187 | 1.0 | 3.0 | 0.00 | 0.00 | 0.00 | 57 | 1017.8 |
| 20260509205230 | 46 | 210 | 1.0 | 4.0 | 0.00 | 0.00 | 0.00 | 55 | 1017.9 |
| 20260509204718 | 47 | 179 | 1.0 | 3.0 | 0.00 | 0.00 | 0.00 | 51 | 1017.8 |
| 20260509203231 | 48 | 191 | 1.0 | 4.0 | 0.00 | 0.00 | 0.00 | 50 | 1018.0 |
| 20260509202710 | 49 | 180 | 1.0 | 4.0 | 0.00 | 0.00 | 0.00 | 47 | 1018.0 |
| 20260509201713 | 50 | 185 | 2.0 | 4.0 | 0.00 | 0.00 | 0.00 | 44 | 1018.2 |
| 20260509200231 | 51 | 158 | 2.0 | 4.0 | 0.00 | 0.00 | 0.00 | 44 | 1018.2 |
| 20260509195231 | 52 | 193 | 1.0 | 2.0 | 0.00 | 0.00 | 0.00 | 43 | 1018.2 |
| 20260509194705 | 53 | 193 | 2.0 | 4.0 | 0.00 | 0.00 | 0.00 | 40 | 1018.3 |
| 20260509193230 | 54 | 182 | 1.0 | 3.0 | 0.00 | 0.00 | 0.00 | 39 | 1018.3 |
| 20260509192706 | 55 | 171 | 2.0 | 4.0 | 0.00 | 0.00 | 0.00 | 37 | 1018.3 |
| 20260509191708 | 56 | 162 | 2.0 | 4.0 | 0.00 | 0.00 | 0.00 | 35 | 1018.2 |
| 20260509190231 | 56 | 168 | 1.0 | 6.0 | 0.00 | 0.00 | 0.00 | 36 | 1018.3 |
| 20260509185232 | 56 | 197 | 3.0 | 8.0 | 0.00 | 0.00 | 0.00 | 33 | 1018.3 |
| 20260509184231 | 57 | 188 | 2.0 | 6.0 | 0.00 | 0.00 | 0.00 | 32 | 1018.3 |
| 20260509183708 | 57 | 181 | 2.0 | 7.0 | 0.00 | 0.00 | 0.00 | 31 | 1018.3 |
| 20260509182229 | 57 | 153 | 3.0 | 10.0 | 0.00 | 0.00 | 0.00 | 31 | 1018.3 |
| 20260509181228 | 57 | 187 | 3.0 | 11.0 | 0.00 | 0.00 | 0.00 | 32 | 1018.3 |
| 20260509180225 | 58 | 162 | 4.0 | 12.0 | 0.00 | 0.00 | 0.00 | 31 | 1018.3 |
| 20260509175225 | 58 | 152 | 4.0 | 9.0 | 0.00 | 0.00 | 0.00 | 31 | 1018.3 |
| 20260509174226 | 58 | 157 | 4.0 | 8.0 | 0.00 | 0.00 | 0.00 | 31 | 1018.4 |
| 20260509173225 | 58 | 191 | 4.0 | 11.0 | 0.00 | 0.00 | 0.00 | 31 | 1018.3 |
| 20260509172225 | 58 | 197 | 3.0 | 9.0 | 0.00 | 0.00 | 0.00 | 32 | 1018.4 |
| 20260509171710 | 58 | 149 | 4.0 | 14.0 | 0.00 | 0.00 | 0.00 | 30 | 1018.4 |
| 20260509170225 | 58 | 190 | 6.0 | 15.0 | 0.00 | 0.00 | 0.00 | 30 | 1018.5 |
| 20260509165711 | 58 | 181 | 4.0 | 14.0 | 0.00 | 0.00 | 0.00 | 30 | 1018.5 |
| 20260509164658 | 58 | 217 | 3.0 | 10.0 | 0.00 | 0.00 | 0.00 | 30 | 1018.6 |
| 20260509163219 | 59 | 280 | 5.0 | 12.0 | 0.00 | 0.00 | 0.00 | 29 | 1018.8 |
| 20260509162655 | 59 | 177 | 7.0 | 17.0 | 0.00 | 0.00 | 0.00 | 28 | 1018.9 |
| 20260509161218 | 59 | 205 | 6.0 | 16.0 | 0.00 | 0.00 | 0.00 | 28 | 1018.9 |
| 20260509160218 | 60 | 168 | 5.0 | 13.0 | 0.00 | 0.00 | 0.00 | 28 | 1019.1 |
| 20260509155652 | 60 | 179 | 6.0 | 15.0 | 0.00 | 0.00 | 0.00 | 28 | 1019.1 |
| 20260509154218 | 60 | 173 | 7.0 | 16.0 | 0.00 | 0.00 | 0.00 | 27 | 1019.2 |
| 20260509153213 | 60 | 164 | 7.0 | 15.0 | 0.00 | 0.00 | 0.00 | 28 | 1019.3 |
| 20260509152658 | 61 | 135 | 7.0 | 19.0 | 0.00 | 0.00 | 0.00 | 27 | 1019.4 |
| 20260509151212 | 61 | 166 | 6.0 | 14.0 | 0.00 | 0.00 | 0.00 | 26 | 1019.6 |
| 20260509150212 | 61 | 196 | 7.0 | 17.0 | 0.00 | 0.00 | 0.00 | 28 | 1019.7 |
| 20260509150128 | 61 | 218 | 5.0 | 16.0 | 0.00 | 0.00 | 0.00 | 27 | 1019.7 |
| 20260509144213 | 61 | 210 | 6.0 | 14.0 | 0.00 | 0.00 | 0.00 | 27 | 1019.7 |
| 20260509143213 | 60 | 198 | 6.0 | 15.0 | 0.00 | 0.00 | 0.00 | 27 | 1020.0 |
| 20260509142214 | 61 | 131 | 5.0 | 11.0 | 0.00 | 0.00 | 0.00 | 27 | 1020.1 |
| 20260509141212 | 60 | 131 | 5.0 | 12.0 | 0.00 | 0.00 | 0.00 | 26 | 1020.1 |
| 20260509140206 | 60 | 179 | 6.0 | 13.0 | 0.00 | 0.00 | 0.00 | 26 | 1020.2 |
| 20260509135655 | 60 | 182 | 6.0 | 17.0 | 0.00 | 0.00 | 0.00 | 26 | 1020.3 |
| 20260509134208 | 60 | 225 | 8.0 | 19.0 | 0.00 | 0.00 | 0.00 | 27 | 1020.4 |
| 20260509133206 | 60 | 171 | 8.0 | 16.0 | 0.00 | 0.00 | 0.00 | 26 | 1020.6 |
| 20260509132206 | 60 | 157 | 5.0 | 15.0 | 0.00 | 0.00 | 0.00 | 26 | 1020.6 |
| 20260509131207 | 60 | 185 | 8.0 | 18.0 | 0.00 | 0.00 | 0.00 | 27 | 1020.8 |
| 20260509130206 | 59 | 157 | 9.0 | 19.0 | 0.00 | 0.00 | 0.00 | 26 | 1021.1 |
| 20260509125206 | 59 | 148 | 10.0 | 17.0 | 0.00 | 0.00 | 0.00 | 27 | 1021.0 |
| 20260509124206 | 60 | 128 | 10.0 | 20.0 | 0.00 | 0.00 | 0.00 | 27 | 1021.3 |
| 20260509123206 | 61 | 135 | 8.0 | 14.0 | 0.00 | 0.00 | 0.00 | 25 | 1021.4 |
| 20260509122206 | 60 | 112 | 10.0 | 21.0 | 0.00 | 0.00 | 0.00 | 25 | 1021.4 |
| 20260509121206 | 60 | 150 | 10.0 | 19.0 | 0.00 | 0.00 | 0.00 | 24 | 1021.5 |
| 20260509120651 | 61 | 155 | 9.0 | 21.0 | 0.00 | 0.00 | 0.00 | 25 | 1021.6 |
| 20260509115206 | 60 | 139 | 7.0 | 15.0 | 0.00 | 0.00 | 0.00 | 24 | 1021.9 |
| 20260509114206 | 60 | 156 | 9.0 | 17.0 | 0.00 | 0.00 | 0.00 | 24 | 1022.1 |
| 20260509113647 | 61 | 133 | 9.0 | 18.0 | 0.00 | 0.00 | 0.00 | 23 | 1022.3 |
| 20260509112206 | 60 | 114 | 10.0 | 22.0 | 0.00 | 0.00 | 0.00 | 24 | 1022.2 |
| 20260509111204 | 60 | 135 | 11.0 | 19.0 | 0.00 | 0.00 | 0.00 | 24 | 1022.4 |
| 20260509110205 | 60 | 174 | 8.0 | 18.0 | 0.00 | 0.00 | 0.00 | 22 | 1022.6 |
| 20260509105204 | 60 | 150 | 10.0 | 20.0 | 0.00 | 0.00 | 0.00 | 23 | 1022.7 |
| 20260509104204 | 60 | 84 | 10.0 | 18.0 | 0.00 | 0.00 | 0.00 | 24 | 1022.7 |
| 20260509103204 | 60 | 114 | 11.0 | 20.0 | 0.00 | 0.00 | 0.00 | 23 | 1022.9 |
| 20260509102645 | 60 | 122 | 11.0 | 23.0 | 0.00 | 0.00 | 0.00 | 23 | 1023.1 |
| 20260509101644 | 60 | 197 | 7.0 | 12.0 | 0.00 | 0.00 | 0.00 | 24 | 1023.2 |
| 20260509100644 | 59 | 179 | 7.0 | 16.0 | 0.00 | 0.00 | 0.00 | 25 | 1023.4 |
| 20260509100120 | 59 | 167 | 4.0 | 8.0 | 0.00 | 0.00 | 0.00 | 31 | 1023.6 |
| 20260509094204 | 57 | 104 | 6.0 | 12.0 | 0.00 | 0.00 | 0.00 | 26 | 1023.7 |
| 20260509093202 | 57 | 192 | 4.0 | 10.0 | 0.00 | 0.00 | 0.00 | 26 | 1023.8 |
| 20260509092636 | 56 | 190 | 5.0 | 11.0 | 0.00 | 0.00 | 0.00 | 28 | 1023.8 |
| 20260509091202 | 57 | 155 | 4.0 | 9.0 | 0.00 | 0.00 | 0.00 | 28 | 1024.0 |
| 20260509090641 | 57 | 125 | 4.0 | 10.0 | 0.00 | 0.00 | 0.00 | 30 | 1024.2 |
| 20260509085203 | 57 | 117 | 6.0 | 12.0 | 0.00 | 0.00 | 0.00 | 30 | 1024.2 |
| 20260509084208 | 55 | 0.0 | 0.0 | 0.00 | 0.00 | 0.00 | 31 | 1024.2 | |
| 20260509082945 | 53 | 131 | 4.0 | 9.0 | 0.00 | 0.00 | 0.00 | 34 | 1024.6 |
| 20260509081501 | 52 | 137 | 4.0 | 9.0 | 0.00 | 0.00 | 0.00 | 33 | 1024.7 |
| 20260509080501 | 51 | 104 | 5.0 | 10.0 | 0.00 | 0.00 | 0.00 | 34 | 1024.6 |
| 20260509075501 | 51 | 97 | 4.0 | 9.0 | 0.00 | 0.00 | 0.00 | 35 | 1024.7 |